Time,TemperatureF,DewpointF,PressureIn,WindDirection,WindDirectionDegrees,WindSpeedMPH,WindSpeedGustMPH,Humidity,HourlyPrecipIn,Conditions,Clouds,dailyrainin,SoftwareType,DateUTC
2013-05-23 00:02:00,44.0,44.0,-100.00,SE,135,0.0,2.0,99,-99.99,,,-99.99,,2013-05-23 07:02:00,
2013-05-23 00:11:00,44.0,44.0,-100.00,SE,135,0.0,2.0,99,-99.99,,,-99.99,,2013-05-23 07:11:00,
2013-05-23 00:21:00,44.0,44.0,-100.00,SW,225,0.0,2.0,99,-99.99,,,-99.99,,2013-05-23 07:21:00,
2013-05-23 00:31:00,44.0,44.0,-100.00,NE,45,1.0,4.0,99,-99.99,,,-99.99,,2013-05-23 07:31:00,
2013-05-23 00:42:00,44.0,44.0,-100.00,NE,45,1.0,4.0,99,-99.99,,,-99.99,,2013-05-23 07:42:00,
2013-05-23 00:59:00,44.0,43.0,-100.00,North,0,0.0,2.0,99,-99.99,,,-99.99,,2013-05-23 07:59:00,
2013-05-23 01:11:00,43.0,43.0,-100.00,SE,135,1.0,3.0,99,-99.99,,,-99.99,,2013-05-23 08:11:00,
2013-05-23 01:21:00,43.0,43.0,-100.00,East,90,1.0,4.0,99,-99.99,,,-99.99,,2013-05-23 08:21:00,
2013-05-23 01:31:00,43.0,43.0,-100.00,SE,135,1.0,3.0,99,-99.99,,,-99.99,,2013-05-23 08:31:00,
2013-05-23 01:41:00,43.0,43.0,-100.00,SE,135,1.0,3.0,99,-99.99,,,-99.99,,2013-05-23 08:41:00,
2013-05-23 01:52:00,43.0,43.0,-100.00,South,180,0.0,2.0,99,-99.99,,,-99.99,,2013-05-23 08:52:00,
2013-05-23 02:01:00,43.0,43.0,-100.00,South,180,0.0,3.0,99,-99.99,,,-99.99,,2013-05-23 09:01:00,
2013-05-23 02:11:00,43.0,43.0,-100.00,South,180,0.0,3.0,99,-99.99,,,-99.99,,2013-05-23 09:11:00,
2013-05-23 02:21:00,43.0,43.0,-100.00,East,90,3.0,3.0,99,-99.99,,,-99.99,,2013-05-23 09:21:00,
2013-05-23 02:33:00,43.0,43.0,-100.00,South,180,0.0,2.0,99,-99.99,,,-99.99,,2013-05-23 09:33:00,
2013-05-23 02:42:00,43.0,43.0,-100.00,South,180,0.0,2.0,99,-99.99,,,-99.99,,2013-05-23 09:42:00,
2013-05-23 02:53:00,43.0,43.0,-100.00,South,180,1.0,1.0,99,-99.99,,,-99.99,,2013-05-23 09:53:00,
2013-05-23 03:02:00,43.0,43.0,-100.00,East,90,1.0,2.0,99,-99.99,,,-99.99,,2013-05-23 10:02:00,
2013-05-23 03:12:00,43.0,43.0,-100.00,East,90,1.0,2.0,99,-99.99,,,-99.99,,2013-05-23 10:12:00,
2013-05-23 03:22:00,43.0,43.0,-100.00,NE,45,1.0,2.0,101,-99.99,,,-99.99,,2013-05-23 10:22:00,
2013-05-23 03:32:00,43.0,43.0,-100.00,North,0,1.0,2.0,101,-99.99,,,-99.99,,2013-05-23 10:32:00,
2013-05-23 03:42:00,43.0,43.0,-100.00,North,0,1.0,2.0,101,-99.99,,,-99.99,,2013-05-23 10:42:00,
2013-05-23 03:52:00,43.0,43.0,-100.00,SE,135,0.0,1.0,101,-99.99,,,-99.99,,2013-05-23 10:52:00,
2013-05-23 04:02:00,43.0,43.0,-100.00,North,0,0.0,1.0,101,-99.99,,,-99.99,,2013-05-23 11:02:00,
2013-05-23 04:11:00,43.0,43.0,-100.00,North,0,0.0,1.0,101,-99.99,,,-99.99,,2013-05-23 11:11:00,
2013-05-23 04:21:00,43.0,43.0,-100.00,North,0,0.0,1.0,101,-99.99,,,-99.99,,2013-05-23 11:21:00,
2013-05-23 04:32:00,42.0,42.0,-100.00,North,0,0.0,3.0,101,-99.99,,,-99.99,,2013-05-23 11:32:00,
2013-05-23 04:41:00,42.0,42.0,-100.00,North,0,0.0,3.0,101,-99.99,,,-99.99,,2013-05-23 11:41:00,
2013-05-23 04:52:00,41.0,41.0,-100.00,North,0,1.0,2.0,101,-99.99,,,-99.99,,2013-05-23 11:52:00,
2013-05-23 05:01:00,41.0,41.0,-100.00,East,90,1.0,4.0,99,-99.99,,,-99.99,,2013-05-23 12:01:00,
2013-05-23 05:11:00,41.0,41.0,-100.00,East,90,1.0,4.0,99,-99.99,,,-99.99,,2013-05-23 12:11:00,
2013-05-23 05:21:00,41.0,41.0,-100.00,North,0,0.0,1.0,101,-99.99,,,-99.99,,2013-05-23 12:21:00,
2013-05-23 05:32:00,41.0,41.0,-100.00,East,90,1.0,2.0,101,-99.99,,,-99.99,,2013-05-23 12:32:00,
2013-05-23 05:42:00,41.0,41.0,-100.00,East,90,1.0,2.0,101,-99.99,,,-99.99,,2013-05-23 12:42:00,
2013-05-23 05:52:00,41.0,41.0,-100.00,North,0,0.0,3.0,101,-99.99,,,-99.99,,2013-05-23 12:52:00,
2013-05-23 06:01:00,41.0,40.0,-100.00,East,90,3.0,4.0,99,-99.99,,,-99.99,,2013-05-23 13:01:00,
2013-05-23 06:11:00,41.0,40.0,-100.00,East,90,3.0,4.0,99,-99.99,,,-99.99,,2013-05-23 13:11:00,
2013-05-23 06:21:00,41.0,41.0,-100.00,SE,135,1.0,3.0,99,-99.99,,,-99.99,,2013-05-23 13:21:00,
2013-05-23 06:31:00,41.0,40.0,-100.00,North,0,0.0,2.0,99,-99.99,,,-99.99,,2013-05-23 13:31:00,
2013-05-23 06:41:00,41.0,40.0,-100.00,North,0,0.0,2.0,99,-99.99,,,-99.99,,2013-05-23 13:41:00,
2013-05-23 06:52:00,41.0,41.0,-100.00,North,0,1.0,3.0,99,-99.99,,,-99.99,,2013-05-23 13:52:00,
2013-05-23 07:01:00,41.0,41.0,-100.00,NE,45,2.0,4.0,99,-99.99,,,-99.99,,2013-05-23 14:01:00,
2013-05-23 07:11:00,41.0,41.0,-100.00,NE,45,2.0,4.0,99,-99.99,,,-99.99,,2013-05-23 14:11:00,
2013-05-23 07:21:00,41.0,41.0,-100.00,NE,45,2.0,4.0,99,-99.99,,,-99.99,,2013-05-23 14:21:00,
2013-05-23 07:32:00,41.0,41.0,-100.00,NW,315,0.0,4.0,99,-99.99,,,-99.99,,2013-05-23 14:32:00,
2013-05-23 07:41:00,41.0,41.0,-100.00,NW,315,0.0,4.0,99,-99.99,,,-99.99,,2013-05-23 14:41:00,
2013-05-23 07:52:00,41.0,41.0,-100.00,SE,135,1.0,4.0,99,-99.99,,,-99.99,,2013-05-23 14:52:00,
2013-05-23 08:01:00,41.0,41.0,-100.00,North,0,1.0,3.0,99,-99.99,,,-99.99,,2013-05-23 15:01:00,
2013-05-23 08:11:00,41.0,41.0,-100.00,North,0,1.0,3.0,99,-99.99,,,-99.99,,2013-05-23 15:11:00,
2013-05-23 08:21:00,42.0,42.0,-100.00,East,90,2.0,4.0,99,-99.99,,,-99.99,,2013-05-23 15:21:00,
2013-05-23 08:32:00,42.0,42.0,-100.00,North,0,1.0,3.0,99,-99.99,,,-99.99,,2013-05-23 15:32:00,
2013-05-23 08:42:00,42.0,42.0,-100.00,North,0,1.0,3.0,99,-99.99,,,-99.99,,2013-05-23 15:42:00,
2013-05-23 08:53:00,42.0,42.0,-100.00,SE,135,1.0,3.0,99,-99.99,,,-99.99,,2013-05-23 15:53:00,
2013-05-23 09:03:00,43.0,42.0,-100.00,NE,45,1.0,3.0,98,-99.99,,,-99.99,,2013-05-23 16:03:00,
2013-05-23 09:12:00,43.0,42.0,-100.00,NE,45,1.0,3.0,98,-99.99,,,-99.99,,2013-05-23 16:12:00,
2013-05-23 09:22:00,43.0,42.0,-100.00,East,90,1.0,4.0,98,-99.99,,,-99.99,,2013-05-23 16:22:00,
2013-05-23 09:33:00,43.0,43.0,-100.00,NE,45,1.0,4.0,98,-99.99,,,-99.99,,2013-05-23 16:33:00,
2013-05-23 09:42:00,43.0,43.0,-100.00,NE,45,1.0,4.0,98,-99.99,,,-99.99,,2013-05-23 16:42:00,
2013-05-23 09:52:00,43.0,42.0,-100.00,North,0,0.0,2.0,98,-99.99,,,-99.99,,2013-05-23 16:52:00,
2013-05-23 10:03:00,43.0,43.0,-100.00,North,0,1.0,3.0,98,-99.99,,,-99.99,,2013-05-23 17:03:00,
2013-05-23 10:11:00,43.0,43.0,-100.00,North,0,1.0,3.0,98,-99.99,,,-99.99,,2013-05-23 17:11:00,
2013-05-23 10:22:00,43.0,42.0,-100.00,NW,315,1.0,3.0,97,-99.99,,,-99.99,,2013-05-23 17:22:00,
2013-05-23 10:33:00,44.0,43.0,-100.00,North,0,1.0,4.0,97,-99.99,,,-99.99,,2013-05-23 17:33:00,
2013-05-23 10:42:00,44.0,43.0,-100.00,North,0,1.0,4.0,97,-99.99,,,-99.99,,2013-05-23 17:42:00,
2013-05-23 10:52:00,44.0,43.0,-100.00,NE,45,2.0,4.0,96,-99.99,,,-99.99,,2013-05-23 17:52:00,
2013-05-23 11:01:00,44.0,43.0,-100.00,NE,45,1.0,4.0,95,-99.99,,,-99.99,,2013-05-23 18:01:00,
2013-05-23 11:11:00,44.0,43.0,-100.00,NE,45,1.0,4.0,95,-99.99,,,-99.99,,2013-05-23 18:11:00,
2013-05-23 11:21:00,45.0,43.0,-100.00,NW,315,3.0,4.0,94,-99.99,,,-99.99,,2013-05-23 18:21:00,
2013-05-23 11:32:00,46.0,45.0,-100.00,East,90,1.0,4.0,95,-99.99,,,-99.99,,2013-05-23 18:32:00,
2013-05-23 11:42:00,46.0,45.0,-100.00,East,90,1.0,4.0,95,-99.99,,,-99.99,,2013-05-23 18:42:00,
2013-05-23 11:52:00,46.0,44.0,-100.00,North,0,1.0,4.0,93,-99.99,,,-99.99,,2013-05-23 18:52:00,
2013-05-23 12:01:00,46.0,44.0,-100.00,NE,45,2.0,4.0,93,-99.99,,,-99.99,,2013-05-23 19:01:00,
2013-05-23 12:11:00,46.0,44.0,-100.00,NE,45,2.0,4.0,93,-99.99,,,-99.99,,2013-05-23 19:11:00,
2013-05-23 12:21:00,46.0,44.0,-100.00,East,90,2.0,4.0,92,-99.99,,,-99.99,,2013-05-23 19:21:00,
2013-05-23 12:31:00,46.0,44.0,-100.00,NW,315,2.0,3.0,91,-99.99,,,-99.99,,2013-05-23 19:31:00,
2013-05-23 12:41:00,46.0,44.0,-100.00,NW,315,2.0,3.0,91,-99.99,,,-99.99,,2013-05-23 19:41:00,
2013-05-23 12:52:00,47.0,45.0,-100.00,NE,45,1.0,4.0,91,-99.99,,,-99.99,,2013-05-23 19:52:00,
2013-05-23 13:02:00,47.0,45.0,-100.00,East,90,2.0,5.0,91,-99.99,,,-99.99,,2013-05-23 20:02:00,
2013-05-23 13:11:00,47.0,45.0,-100.00,East,90,2.0,5.0,91,-99.99,,,-99.99,,2013-05-23 20:11:00,
2013-05-23 13:21:00,48.0,45.0,-100.00,East,90,1.0,3.0,91,-99.99,,,-99.99,,2013-05-23 20:21:00,
2013-05-23 13:32:00,47.0,45.0,-100.00,NW,315,1.0,5.0,91,-99.99,,,-99.99,,2013-05-23 20:32:00,
2013-05-23 13:41:00,47.0,45.0,-100.00,NW,315,1.0,5.0,91,-99.99,,,-99.99,,2013-05-23 20:41:00,
2013-05-23 13:52:00,49.0,46.0,-100.00,SE,135,1.0,6.0,91,-99.99,,,-99.99,,2013-05-23 20:52:00,
2013-05-23 14:01:00,48.0,46.0,-100.00,NW,315,3.0,4.0,91,-99.99,,,-99.99,,2013-05-23 21:01:00,
2013-05-23 14:11:00,48.0,46.0,-100.00,NW,315,3.0,4.0,91,-99.99,,,-99.99,,2013-05-23 21:11:00,
2013-05-23 14:21:00,48.0,45.0,-100.00,NW,315,1.0,4.0,88,-99.99,,,-99.99,,2013-05-23 21:21:00,
2013-05-23 14:32:00,49.0,45.0,-100.00,NW,315,2.0,3.0,87,-99.99,,,-99.99,,2013-05-23 21:32:00,
2013-05-23 14:43:00,49.0,45.0,-100.00,NW,315,2.0,3.0,87,-99.99,,,-99.99,,2013-05-23 21:43:00,
2013-05-23 14:53:00,49.0,46.0,-100.00,NW,315,1.0,2.0,89,-99.99,,,-99.99,,2013-05-23 21:53:00,
2013-05-23 15:02:00,50.0,46.0,-100.00,NW,315,2.0,3.0,88,-99.99,,,-99.99,,2013-05-23 22:02:00,
2013-05-23 15:12:00,50.0,46.0,-100.00,NW,315,2.0,3.0,88,-99.99,,,-99.99,,2013-05-23 22:12:00,
2013-05-23 15:22:00,50.0,46.0,-100.00,North,0,2.0,4.0,86,-99.99,,,-99.99,,2013-05-23 22:22:00,
2013-05-23 15:33:00,50.0,46.0,-100.00,NW,315,1.0,4.0,84,-99.99,,,-99.99,,2013-05-23 22:33:00,
2013-05-23 15:42:00,50.0,46.0,-100.00,NW,315,1.0,4.0,84,-99.99,,,-99.99,,2013-05-23 22:42:00,
2013-05-23 15:52:00,50.0,45.0,-100.00,NW,315,2.0,3.0,82,-99.99,,,-99.99,,2013-05-23 22:52:00,
2013-05-23 16:01:00,52.0,46.0,-100.00,NW,315,1.0,4.0,81,-99.99,,,-99.99,,2013-05-23 23:01:00,
2013-05-23 16:11:00,52.0,46.0,-100.00,NW,315,1.0,4.0,81,-99.99,,,-99.99,,2013-05-23 23:11:00,
2013-05-23 16:21:00,52.0,46.0,-100.00,North,0,1.0,5.0,82,-99.99,,,-99.99,,2013-05-23 23:21:00,
2013-05-23 16:31:00,52.0,46.0,-100.00,North,0,1.0,6.0,80,-99.99,,,-99.99,,2013-05-23 23:31:00,
2013-05-23 16:42:00,52.0,46.0,-100.00,North,0,1.0,6.0,80,-99.99,,,-99.99,,2013-05-23 23:42:00,
2013-05-23 16:52:00,53.0,46.0,-100.00,East,90,3.0,4.0,79,-99.99,,,-99.99,,2013-05-23 23:52:00,
2013-05-23 17:01:00,53.0,47.0,-100.00,North,0,1.0,3.0,81,-99.99,,,-99.99,,2013-05-24 00:01:00,
2013-05-23 17:11:00,53.0,47.0,-100.00,North,0,1.0,3.0,81,-99.99,,,-99.99,,2013-05-24 00:11:00,
2013-05-23 17:21:00,53.0,47.0,-100.00,North,0,1.0,4.0,81,-99.99,,,-99.99,,2013-05-24 00:21:00,
2013-05-23 17:31:00,53.0,48.0,-100.00,NE,45,1.0,3.0,81,-99.99,,,-99.99,,2013-05-24 00:31:00,
2013-05-23 17:42:00,53.0,48.0,-100.00,NE,45,1.0,3.0,81,-99.99,,,-99.99,,2013-05-24 00:42:00,
2013-05-23 17:52:00,53.0,48.0,-100.00,NE,45,1.0,4.0,83,-99.99,,,-99.99,,2013-05-24 00:52:00,
2013-05-23 18:01:00,52.0,50.0,-100.00,NE,45,1.0,6.0,90,-99.99,,,-99.99,,2013-05-24 01:01:00,
2013-05-23 18:12:00,52.0,50.0,-100.00,NE,45,1.0,6.0,90,-99.99,,,-99.99,,2013-05-24 01:12:00,
2013-05-23 18:22:00,52.0,50.0,-100.00,NW,315,0.0,3.0,93,-99.99,,,-99.99,,2013-05-24 01:22:00,
2013-05-23 18:32:00,51.0,49.0,-100.00,SW,225,2.0,4.0,94,-99.99,,,-99.99,,2013-05-24 01:32:00,
2013-05-23 18:41:00,51.0,49.0,-100.00,SW,225,2.0,4.0,94,-99.99,,,-99.99,,2013-05-24 01:41:00,
2013-05-23 18:52:00,51.0,49.0,-100.00,South,180,1.0,7.0,95,-99.99,,,-99.99,,2013-05-24 01:52:00,
2013-05-23 19:01:00,50.0,49.0,-100.00,SW,225,0.0,3.0,96,-99.99,,,-99.99,,2013-05-24 02:01:00,
2013-05-23 19:11:00,50.0,49.0,-100.00,SW,225,0.0,3.0,96,-99.99,,,-99.99,,2013-05-24 02:11:00,
2013-05-23 19:21:00,50.0,49.0,-100.00,West,270,1.0,2.0,97,-99.99,,,-99.99,,2013-05-24 02:21:00,
2013-05-23 19:32:00,50.0,49.0,-100.00,NW,315,0.0,3.0,97,-99.99,,,-99.99,,2013-05-24 02:32:00,
2013-05-23 19:42:00,50.0,49.0,-100.00,NW,315,0.0,3.0,97,-99.99,,,-99.99,,2013-05-24 02:42:00,
2013-05-23 19:52:00,50.0,49.0,-100.00,SE,135,1.0,3.0,97,-99.99,,,-99.99,,2013-05-24 02:52:00,
2013-05-23 20:02:00,49.0,48.0,-100.00,SW,225,1.0,4.0,97,-99.99,,,-99.99,,2013-05-24 03:02:00,
2013-05-23 20:11:00,49.0,48.0,-100.00,SW,225,1.0,4.0,97,-99.99,,,-99.99,,2013-05-24 03:11:00,
2013-05-23 20:21:00,49.0,48.0,-100.00,East,90,1.0,3.0,97,-99.99,,,-99.99,,2013-05-24 03:21:00,
2013-05-23 20:33:00,48.0,48.0,-100.00,South,180,1.0,3.0,97,-99.99,,,-99.99,,2013-05-24 03:33:00,
2013-05-23 20:42:00,48.0,48.0,-100.00,South,180,1.0,3.0,97,-99.99,,,-99.99,,2013-05-24 03:42:00,
2013-05-23 20:53:00,48.0,48.0,-100.00,SE,135,1.0,4.0,98,-99.99,,,-99.99,,2013-05-24 03:53:00,
2013-05-23 21:03:00,48.0,47.0,-100.00,East,90,1.0,4.0,98,-99.99,,,-99.99,,2013-05-24 04:03:00,
2013-05-23 21:12:00,48.0,47.0,-100.00,East,90,1.0,4.0,98,-99.99,,,-99.99,,2013-05-24 04:12:00,
2013-05-23 21:22:00,48.0,47.0,-100.00,South,180,1.0,3.0,98,-99.99,,,-99.99,,2013-05-24 04:22:00,
2013-05-23 21:33:00,47.0,47.0,-100.00,East,90,1.0,3.0,98,-99.99,,,-99.99,,2013-05-24 04:33:00,
2013-05-23 21:42:00,47.0,47.0,-100.00,SE,135,1.0,2.0,99,-99.99,,,-99.99,,2013-05-24 04:42:00,
2013-05-23 21:53:00,47.0,47.0,-100.00,SE,135,1.0,2.0,99,-99.99,,,-99.99,,2013-05-24 04:53:00,
2013-05-23 22:02:00,47.0,47.0,-100.00,East,90,1.0,2.0,99,-99.99,,,-99.99,,2013-05-24 05:02:00,
2013-05-23 22:12:00,47.0,47.0,-100.00,East,90,1.0,2.0,99,-99.99,,,-99.99,,2013-05-24 05:12:00,
2013-05-23 22:22:00,47.0,47.0,-100.00,South,180,1.0,3.0,99,-99.99,,,-99.99,,2013-05-24 05:22:00,
2013-05-23 22:32:00,47.0,47.0,-100.00,SE,135,0.0,2.0,99,-99.99,,,-99.99,,2013-05-24 05:32:00,
2013-05-23 22:42:00,47.0,47.0,-100.00,SE,135,0.0,2.0,99,-99.99,,,-99.99,,2013-05-24 05:42:00,
2013-05-23 22:52:00,47.0,47.0,-100.00,South,180,0.0,2.0,99,-99.99,,,-99.99,,2013-05-24 05:52:00,
2013-05-23 23:01:00,47.0,47.0,-100.00,SE,135,0.0,1.0,99,-99.99,,,-99.99,,2013-05-24 06:01:00,
2013-05-23 23:12:00,47.0,47.0,-100.00,SE,135,0.0,1.0,99,-99.99,,,-99.99,,2013-05-24 06:12:00,
2013-05-23 23:21:00,47.0,47.0,-100.00,East,90,2.0,3.0,99,-99.99,,,-99.99,,2013-05-24 06:21:00,
2013-05-23 23:32:00,47.0,47.0,-100.00,East,90,1.0,2.0,101,-99.99,,,-99.99,,2013-05-24 06:32:00,
2013-05-23 23:41:00,47.0,47.0,-100.00,East,90,1.0,2.0,101,-99.99,,,-99.99,,2013-05-24 06:41:00,
2013-05-23 23:52:00,47.0,47.0,-100.00,East,90,1.0,3.0,101,-99.99,,,-99.99,,2013-05-24 06:52:00,